Location: Silverdale
(47.6506°N, 122.6941°W)
Time: 04:56:19
(UTC+00:00)

Altair - Pass Details

Date: 11 October 2022
Orbit: 1501 x 1682 km, 47.2° (Epoch: 04 December)

Event Time Altitude Azimuth Distance (km) Brightness Sun altitude
Rises 09:01:58 0° 190° (S) 4,672 - -47.2°
Reaches altitude 10° 09:05:48 10° 176° (S) 3,718 - -46.9°
Maximum altitude 09:12:35 23° 129° (SE) 2,890 - -46.4°
Exits shadow 09:15:55 19° 103° (ESE) 3,145 9.2 -46.1°
Drops below altitude 10° 09:19:33 10° 83° (E) 3,835 9.8 -45.8°
Sets 09:23:33 0° 70° (ENE) 4,854 10.6 -45.5°
